Location: Ernez
(36.4595°N, 29.8755°E)
Time: 09:24:49
(UTC+00:00)

Cosmos 2278 Rocket - Pass Details

Date: 13 November 2025
Orbit: 841 x 843 km, 71.0° (Epoch: 05 December)

Event Time Altitude Azimuth Distance (km) Brightness Sun altitude
Rises 15:21:24 0° 171° (S) 3,381 5.5 -6.1°
Reaches altitude 10° 15:24:08 10° 160° (SSE) 2,450 4.6 -6.7°
Maximum altitude 15:28:51 28° 102° (ESE) 1,524 3.1 -7.6°
Drops below altitude 10° 15:33:35 10° 45° (NE) 2,463 4.1 -8.5°
Enters shadow 15:35:01 - 39° (NE) 2,943 4.5 -8.8°
